contact:dominique.lefevre@mio.osupytheas.fr, maurice.libes@osupytheas.fr, didier.mallarino@osupytheas.fr
Project:EMSO http://www.emso-fr.org/EMSO-France
Depth: 2436.0 m
Title:EMSO Ligure Ouest : Data MII capteur CSTAR
DateTime,Latitude,Longitude,Instrument_Serial,Reference_Counts,Signal_Counts,Corrected_Signal_raw_counts,Calculated_Beam_c_inverse_meters,Internal_thermistor_counts
DateTime,Latitude,Longitude,Instrument_Serial,Reference_Counts,Signal_Counts,Corrected_Signal_raw_counts,Calculated_Beam_c_inverse_meters,Internal_thermistor_counts
2017-10-16T00:00:02,42.805,6.029,CST-1368DR,11215,15320,15462,0.040,551
2017-10-16T00:03:07,42.805,6.029,CST-1368DR,11215,15324,15467,0.038,551
2017-10-16T00:06:11,42.805,6.029,CST-1368DR,11215,15323,15465,0.039,551
2017-10-16T00:09:16,42.805,6.029,CST-1368DR,11215,15325,15467,0.038,551
2017-10-16T00:12:21,42.805,6.029,CST-1368DR,11215,15325,15468,0.038,551
2017-10-16T00:15:26,42.805,6.029,CST-1368DR,11215,15314,15456,0.041,551
2017-10-16T00:18:31,42.805,6.029,CST-1368DR,11215,15324,15467,0.038,551
2017-10-16T00:21:36,42.805,6.029,CST-1368DR,11215,15324,15466,0.039,550
2017-10-16T00:24:41,42.805,6.029,CST-1368DR,11215,15326,15468,0.038,550
2017-10-16T00:27:46,42.805,6.029,CST-1368DR,11215,15323,15466,0.039,551
2017-10-16T00:30:51,42.805,6.029,CST-1368DR,11215,15324,15467,0.038,551
2017-10-16T00:33:55,42.805,6.029,CST-1368DR,11215,15317,15460,0.040,551
2017-10-16T00:37:00,42.805,6.029,CST-1368DR,11215,15324,15467,0.038,551
2017-10-16T00:40:05,42.805,6.029,CST-1368DR,11215,15324,15467,0.038,551
2017-10-16T00:43:10,42.805,6.029,CST-1368DR,11215,15323,15465,0.039,551
2017-10-16T00:46:15,42.805,6.029,CST-1368DR,11215,15323,15465,0.039,551
2017-10-16T00:49:20,42.805,6.029,CST-1368DR,11215,15321,15463,0.039,551
2017-10-16T00:52:25,42.805,6.029,CST-1368DR,11215,15317,15459,0.040,551
2017-10-16T00:55:30,42.805,6.029,CST-1368DR,11215,15323,15466,0.039,550
2017-10-16T00:58:35,42.805,6.029,CST-1368DR,11215,15321,15464,0.039,551
2017-10-16T01:01:39,42.805,6.029,CST-1368DR,11215,15322,15465,0.039,550
2017-10-16T01:04:44,42.805,6.029,CST-1368DR,11215,15324,15466,0.039,551
2017-10-16T01:07:49,42.805,6.029,CST-1368DR,11215,15324,15467,0.038,551
2017-10-16T01:10:54,42.805,6.029,CST-1368DR,11215,15323,15466,0.039,551
2017-10-16T01:13:59,42.805,6.029,CST-1368DR,11215,15313,15455,0.041,551
2017-10-16T01:17:04,42.805,6.029,CST-1368DR,11215,15320,15463,0.039,551
2017-10-16T01:20:09,42.805,6.029,CST-1368DR,11215,15323,15466,0.039,551
2017-10-16T01:23:14,42.805,6.029,CST-1368DR,11215,15323,15465,0.039,550
2017-10-16T01:26:19,42.805,6.029,CST-1368DR,11215,15325,15467,0.038,551
2017-10-16T01:29:24,42.805,6.029,CST-1368DR,11215,15323,15465,0.039,551
2017-10-16T01:32:28,42.805,6.029,CST-1368DR,11215,15323,15466,0.039,551
2017-10-16T01:35:33,42.805,6.029,CST-1368DR,11215,15324,15466,0.039,551
2017-10-16T01:38:38,42.805,6.029,CST-1368DR,11215,15314,15457,0.041,551
2017-10-16T01:41:43,42.805,6.029,CST-1368DR,11215,15323,15465,0.039,551
2017-10-16T01:44:48,42.805,6.029,CST-1368DR,11215,15322,15465,0.039,551
2017-10-16T01:47:53,42.805,6.029,CST-1368DR,11215,15318,15461,0.040,551
2017-10-16T01:50:58,42.805,6.029,CST-1368DR,11215,15322,15465,0.039,551
2017-10-16T01:54:03,42.805,6.029,CST-1368DR,11215,15321,15463,0.039,551
2017-10-16T01:57:08,42.805,6.029,CST-1368DR,11215,15323,15466,0.039,551
2017-10-16T02:00:12,42.805,6.029,CST-1368DR,11215,15321,15464,0.039,551
2017-10-16T02:03:17,42.805,6.029,CST-1368DR,11215,15323,15466,0.039,551
2017-10-16T02:06:22,42.805,6.029,CST-1368DR,11215,15321,15464,0.039,551
2017-10-16T02:09:27,42.805,6.029,CST-1368DR,11215,15320,15463,0.039,550
2017-10-16T02:12:32,42.805,6.029,CST-1368DR,11215,15320,15463,0.039,551
2017-10-16T02:15:37,42.805,6.029,CST-1368DR,11215,15323,15466,0.039,550
2017-10-16T02:18:42,42.805,6.029,CST-1368DR,11215,15321,15464,0.039,551
2017-10-16T02:21:47,42.805,6.029,CST-1368DR,11215,15321,15464,0.039,551
2017-10-16T02:24:52,42.805,6.029,CST-1368DR,11215,15322,15464,0.039,551
2017-10-16T02:27:56,42.805,6.029,CST-1368DR,11215,15324,15466,0.039,551
2017-10-16T02:31:01,42.805,6.029,CST-1368DR,11215,15322,15465,0.039,551
2017-10-16T02:34:06,42.805,6.029,CST-1368DR,11215,15318,15461,0.040,551
2017-10-16T02:37:11,42.805,6.029,CST-1368DR,11215,15323,15465,0.039,551
2017-10-16T02:40:16,42.805,6.029,CST-1368DR,11215,15319,15462,0.040,551
2017-10-16T02:43:21,42.805,6.029,CST-1368DR,11215,15323,15466,0.039,551
2017-10-16T02:46:26,42.805,6.029,CST-1368DR,11215,15319,15462,0.040,551
2017-10-16T02:49:31,42.805,6.029,CST-1368DR,11215,15322,15464,0.039,551
2017-10-16T02:52:36,42.805,6.029,CST-1368DR,11215,15319,15462,0.040,551
2017-10-16T02:55:40,42.805,6.029,CST-1368DR,11215,15320,15463,0.039,551
2017-10-16T02:58:45,42.805,6.029,CST-1368DR,11215,15323,15466,0.039,551
2017-10-16T03:01:50,42.805,6.029,CST-1368DR,11215,15317,15460,0.040,551
2017-10-16T03:04:55,42.805,6.029,CST-1368DR,11215,15311,15453,0.042,551
2017-10-16T03:08:00,42.805,6.029,CST-1368DR,11215,15316,15459,0.040,551
2017-10-16T03:11:05,42.805,6.029,CST-1368DR,11215,15318,15461,0.040,551
2017-10-16T03:14:10,42.805,6.029,CST-1368DR,11215,15321,15464,0.039,551
2017-10-16T03:17:15,42.805,6.029,CST-1368DR,11215,15323,15465,0.039,550
2017-10-16T03:20:20,42.805,6.029,CST-1368DR,11215,15322,15465,0.039,551
2017-10-16T03:23:24,42.805,6.029,CST-1368DR,11215,15313,15455,0.041,551
2017-10-16T03:26:29,42.805,6.029,CST-1368DR,11215,15322,15464,0.039,551
2017-10-16T03:29:34,42.805,6.029,CST-1368DR,11215,15321,15463,0.039,551
2017-10-16T03:32:39,42.805,6.029,CST-1368DR,11215,15319,15462,0.040,551
2017-10-16T03:35:44,42.805,6.029,CST-1368DR,11215,15321,15464,0.039,551
2017-10-16T03:38:49,42.805,6.029,CST-1368DR,11214,15318,15462,0.040,551
2017-10-16T03:41:54,42.805,6.029,CST-1368DR,11215,15318,15461,0.040,551
2017-10-16T03:44:59,42.805,6.029,CST-1368DR,11215,15321,15464,0.039,551
2017-10-16T03:48:04,42.805,6.029,CST-1368DR,11214,15319,15463,0.039,551
2017-10-16T03:51:09,42.805,6.029,CST-1368DR,11215,15318,15461,0.040,550
2017-10-16T03:54:13,42.805,6.029,CST-1368DR,11215,15322,15464,0.039,551
2017-10-16T03:57:18,42.805,6.029,CST-1368DR,11214,15318,15462,0.040,551
2017-10-16T04:00:23,42.805,6.029,CST-1368DR,11215,15322,15465,0.039,550
2017-10-16T04:03:28,42.805,6.029,CST-1368DR,11215,15322,15465,0.039,551
2017-10-16T04:06:33,42.805,6.029,CST-1368DR,11215,15321,15464,0.039,551
2017-10-16T04:09:38,42.805,6.029,CST-1368DR,11215,15320,15463,0.039,551
2017-10-16T04:12:43,42.805,6.029,CST-1368DR,11215,15321,15463,0.039,551
2017-10-16T04:15:48,42.805,6.029,CST-1368DR,11215,15323,15465,0.039,551
2017-10-16T04:18:53,42.805,6.029,CST-1368DR,11215,15320,15462,0.040,551
2017-10-16T04:21:57,42.805,6.029,CST-1368DR,11215,15320,15463,0.039,550
2017-10-16T04:25:02,42.805,6.029,CST-1368DR,11215,15320,15462,0.040,551
2017-10-16T04:28:07,42.805,6.029,CST-1368DR,11215,15319,15462,0.040,551
2017-10-16T04:31:12,42.805,6.029,CST-1368DR,11215,15321,15464,0.039,550
2017-10-16T04:34:17,42.805,6.029,CST-1368DR,11215,15321,15463,0.039,551
2017-10-16T04:37:22,42.805,6.029,CST-1368DR,11215,15323,15465,0.039,551
2017-10-16T04:40:27,42.805,6.029,CST-1368DR,11215,15321,15464,0.039,551
2017-10-16T04:43:32,42.805,6.029,CST-1368DR,11215,15318,15461,0.040,551
2017-10-16T04:46:37,42.805,6.029,CST-1368DR,11215,15318,15461,0.040,551
2017-10-16T04:49:41,42.805,6.029,CST-1368DR,11215,15323,15465,0.039,551
2017-10-16T04:52:46,42.805,6.029,CST-1368DR,11215,15319,15461,0.040,551
2017-10-16T04:55:51,42.805,6.029,CST-1368DR,11215,15322,15465,0.039,550
2017-10-16T04:58:56,42.805,6.029,CST-1368DR,11215,15321,15463,0.039,550
2017-10-16T05:02:01,42.805,6.029,CST-1368DR,11215,15315,15457,0.041,551
2017-10-16T05:05:06,42.805,6.029,CST-1368DR,11214,15320,15463,0.039,551
2017-10-16T05:08:11,42.805,6.029,CST-1368DR,11214,15318,15461,0.040,551
2017-10-16T05:11:16,42.805,6.029,CST-1368DR,11214,15320,15464,0.039,551
2017-10-16T05:14:21,42.805,6.029,CST-1368DR,11215,15321,15463,0.039,551
2017-10-16T05:17:25,42.805,6.029,CST-1368DR,11215,15321,15464,0.039,550
2017-10-16T05:20:30,42.805,6.029,CST-1368DR,11214,15318,15462,0.040,551
2017-10-16T05:23:35,42.805,6.029,CST-1368DR,11215,15321,15463,0.039,551
2017-10-16T05:26:40,42.805,6.029,CST-1368DR,11215,15324,15466,0.039,551
2017-10-16T05:29:45,42.805,6.029,CST-1368DR,11215,15316,15458,0.041,551
2017-10-16T05:32:50,42.805,6.029,CST-1368DR,11214,15318,15462,0.040,551
2017-10-16T05:35:55,42.805,6.029,CST-1368DR,11215,15320,15462,0.040,551
2017-10-16T05:39:00,42.805,6.029,CST-1368DR,11214,15320,15464,0.039,551
2017-10-16T05:42:05,42.805,6.029,CST-1368DR,11215,15320,15463,0.039,551
2017-10-16T05:45:10,42.805,6.029,CST-1368DR,11214,15318,15462,0.040,551
2017-10-16T05:48:14,42.805,6.029,CST-1368DR,11214,15320,15463,0.039,551
2017-10-16T05:51:19,42.805,6.029,CST-1368DR,11215,15319,15461,0.040,551
2017-10-16T05:54:24,42.805,6.029,CST-1368DR,11215,15321,15463,0.039,550
2017-10-16T05:57:29,42.805,6.029,CST-1368DR,11214,15315,15458,0.041,551
2017-10-16T06:00:34,42.805,6.029,CST-1368DR,11215,15320,15463,0.039,550
2017-10-16T06:03:39,42.805,6.029,CST-1368DR,11214,15320,15463,0.039,551
2017-10-16T06:06:44,42.805,6.029,CST-1368DR,11215,15317,15460,0.040,551
2017-10-16T06:09:49,42.805,6.029,CST-1368DR,11214,15318,15462,0.040,551
2017-10-16T06:12:54,42.805,6.029,CST-1368DR,11214,15316,15460,0.040,551
2017-10-16T06:15:58,42.805,6.029,CST-1368DR,11214,15320,15464,0.039,551
2017-10-16T06:19:03,42.805,6.029,CST-1368DR,11214,15317,15461,0.040,551
2017-10-16T06:22:08,42.805,6.029,CST-1368DR,11214,15315,15458,0.041,551
2017-10-16T06:25:13,42.805,6.029,CST-1368DR,11215,15319,15462,0.040,550
2017-10-16T06:28:18,42.805,6.029,CST-1368DR,11214,15318,15462,0.040,551
2017-10-16T06:31:23,42.805,6.029,CST-1368DR,11215,15320,15462,0.040,551
2017-10-16T06:34:28,42.805,6.029,CST-1368DR,11215,15318,15460,0.040,551
2017-10-16T06:37:33,42.805,6.029,CST-1368DR,11215,15318,15460,0.040,550
2017-10-16T06:40:38,42.805,6.029,CST-1368DR,11215,15315,15458,0.041,551
2017-10-16T06:43:42,42.805,6.029,CST-1368DR,11214,15317,15461,0.040,551
2017-10-16T06:46:47,42.805,6.029,CST-1368DR,11214,15318,15462,0.040,551
2017-10-16T06:49:52,42.805,6.029,CST-1368DR,11215,15318,15460,0.040,551
2017-10-16T06:52:57,42.805,6.029,CST-1368DR,11215,15320,15462,0.040,551
2017-10-16T06:56:02,42.805,6.029,CST-1368DR,11214,15316,15460,0.040,551
2017-10-16T06:59:07,42.805,6.029,CST-1368DR,11215,15317,15459,0.040,550
2017-10-16T07:02:12,42.805,6.029,CST-1368DR,11214,15317,15460,0.040,551
2017-10-16T07:05:17,42.805,6.029,CST-1368DR,11215,15320,15462,0.040,550
2017-10-16T07:08:22,42.805,6.029,CST-1368DR,11214,15318,15462,0.040,551
2017-10-16T07:11:26,42.805,6.029,CST-1368DR,11214,15318,15461,0.040,550
2017-10-16T07:14:31,42.805,6.029,CST-1368DR,11214,15318,15462,0.040,551
2017-10-16T07:17:36,42.805,6.029,CST-1368DR,11214,15318,15461,0.040,551
2017-10-16T07:20:41,42.805,6.029,CST-1368DR,11214,15318,15462,0.040,551
2017-10-16T07:23:46,42.805,6.029,CST-1368DR,11214,15319,15463,0.039,551
2017-10-16T07:26:51,42.805,6.029,CST-1368DR,11215,15319,15462,0.040,551
2017-10-16T07:29:56,42.805,6.029,CST-1368DR,11214,15315,15458,0.041,551
2017-10-16T07:33:01,42.805,6.029,CST-1368DR,11215,15318,15461,0.040,551
2017-10-16T07:36:06,42.805,6.029,CST-1368DR,11215,15317,15460,0.040,551
2017-10-16T07:39:11,42.805,6.029,CST-1368DR,11215,15317,15459,0.040,551
2017-10-16T07:42:15,42.805,6.029,CST-1368DR,11214,15317,15460,0.040,551
2017-10-16T07:45:20,42.805,6.029,CST-1368DR,11214,15317,15461,0.040,551
2017-10-16T07:48:25,42.805,6.029,CST-1368DR,11214,15320,15463,0.039,551
2017-10-16T07:51:30,42.805,6.029,CST-1368DR,11215,15318,15460,0.040,551
2017-10-16T07:54:35,42.805,6.029,CST-1368DR,11214,15316,15460,0.040,550
2017-10-16T07:57:40,42.805,6.029,CST-1368DR,11214,15316,15459,0.040,551
2017-10-16T08:00:45,42.805,6.029,CST-1368DR,11214,15317,15461,0.040,551
2017-10-16T08:03:50,42.805,6.029,CST-1368DR,11215,15318,15460,0.040,551
2017-10-16T08:06:55,42.805,6.029,CST-1368DR,11214,15312,15456,0.041,550
2017-10-16T08:09:59,42.805,6.029,CST-1368DR,11214,15317,15461,0.040,550
2017-10-16T08:13:04,42.805,6.029,CST-1368DR,11214,15317,15461,0.040,551
2017-10-16T08:16:09,42.805,6.029,CST-1368DR,11214,15315,15459,0.040,551
2017-10-16T08:19:14,42.805,6.029,CST-1368DR,11214,15315,15459,0.040,550
2017-10-16T08:22:19,42.805,6.029,CST-1368DR,11214,15313,15457,0.041,551
2017-10-16T08:25:24,42.805,6.029,CST-1368DR,11214,15316,15459,0.040,551
2017-10-16T08:28:29,42.805,6.029,CST-1368DR,11214,15316,15460,0.040,550
2017-10-16T08:31:34,42.805,6.029,CST-1368DR,11214,15316,15460,0.040,551
2017-10-16T08:34:39,42.805,6.029,CST-1368DR,11214,15317,15461,0.040,551
2017-10-16T08:37:43,42.805,6.029,CST-1368DR,11214,15318,15462,0.040,551
2017-10-16T08:40:48,42.805,6.029,CST-1368DR,11214,15317,15461,0.040,551
2017-10-16T08:43:53,42.805,6.029,CST-1368DR,11214,15317,15460,0.040,551
2017-10-16T08:46:58,42.805,6.029,CST-1368DR,11214,15317,15460,0.040,551
2017-10-16T08:50:03,42.805,6.029,CST-1368DR,11214,15318,15461,0.040,551
2017-10-16T08:53:08,42.805,6.029,CST-1368DR,11214,15316,15459,0.040,551
2017-10-16T08:56:13,42.805,6.029,CST-1368DR,11214,15314,15458,0.041,551
2017-10-16T08:59:18,42.805,6.029,CST-1368DR,11214,15316,15460,0.040,551
2017-10-16T09:02:23,42.805,6.029,CST-1368DR,11214,15315,15459,0.040,550
2017-10-16T09:05:27,42.805,6.029,CST-1368DR,11214,15317,15460,0.040,551
2017-10-16T09:08:32,42.805,6.029,CST-1368DR,11214,15317,15460,0.040,551
2017-10-16T09:11:37,42.805,6.029,CST-1368DR,11214,15316,15460,0.040,551
2017-10-16T09:14:42,42.805,6.029,CST-1368DR,11214,15317,15461,0.040,551
2017-10-16T09:17:47,42.805,6.029,CST-1368DR,11214,15319,15463,0.039,551
2017-10-16T09:20:52,42.805,6.029,CST-1368DR,11214,15318,15461,0.040,551
2017-10-16T09:23:57,42.805,6.029,CST-1368DR,11214,15317,15461,0.040,550
2017-10-16T09:27:02,42.805,6.029,CST-1368DR,11214,15316,15460,0.040,551
2017-10-16T09:30:07,42.805,6.029,CST-1368DR,11214,15316,15459,0.040,550
2017-10-16T09:33:11,42.805,6.029,CST-1368DR,11214,15316,15459,0.040,551
2017-10-16T09:36:16,42.805,6.029,CST-1368DR,11214,15317,15460,0.040,551
2017-10-16T09:39:21,42.805,6.029,CST-1368DR,11214,15318,15462,0.040,551
2017-10-16T09:42:26,42.805,6.029,CST-1368DR,11214,15319,15463,0.039,551
2017-10-16T09:45:31,42.805,6.029,CST-1368DR,11214,15309,15453,0.042,551
2017-10-16T09:48:36,42.805,6.029,CST-1368DR,11214,15317,15460,0.040,551
2017-10-16T09:51:41,42.805,6.029,CST-1368DR,11214,15319,15463,0.039,550
2017-10-16T09:54:46,42.805,6.029,CST-1368DR,11214,15317,15460,0.040,551
2017-10-16T09:57:51,42.805,6.029,CST-1368DR,11214,15317,15461,0.040,551
2017-10-16T10:00:56,42.805,6.029,CST-1368DR,11214,15316,15460,0.040,551
2017-10-16T10:04:00,42.805,6.029,CST-1368DR,11214,15317,15461,0.040,551
2017-10-16T10:07:05,42.805,6.029,CST-1368DR,11214,15315,15459,0.040,551
2017-10-16T10:10:10,42.805,6.029,CST-1368DR,11214,15319,15463,0.039,550
2017-10-16T10:13:15,42.805,6.029,CST-1368DR,11214,15316,15460,0.040,551
2017-10-16T10:16:20,42.805,6.029,CST-1368DR,11214,15321,15465,0.039,551
2017-10-16T10:19:25,42.805,6.029,CST-1368DR,11214,15317,15461,0.040,551
2017-10-16T10:22:30,42.805,6.029,CST-1368DR,11214,15318,15461,0.040,551
2017-10-16T10:25:35,42.805,6.029,CST-1368DR,11214,15309,15453,0.042,551
2017-10-16T10:28:40,42.805,6.029,CST-1368DR,11214,15318,15462,0.040,551
2017-10-16T10:31:44,42.805,6.029,CST-1368DR,11214,15319,15463,0.039,551
2017-10-16T10:34:49,42.805,6.029,CST-1368DR,11214,15317,15461,0.040,551
2017-10-16T10:37:54,42.805,6.029,CST-1368DR,11214,15314,15457,0.041,551
2017-10-16T10:40:59,42.805,6.029,CST-1368DR,11214,15313,15456,0.041,550
2017-10-16T10:44:04,42.805,6.029,CST-1368DR,11213,15316,15461,0.040,550
2017-10-16T10:47:09,42.805,6.029,CST-1368DR,11213,15316,15461,0.040,551
2017-10-16T10:50:14,42.805,6.029,CST-1368DR,11213,15314,15459,0.040,551
2017-10-16T10:53:19,42.805,6.029,CST-1368DR,11212,15258,15404,0.055,551
2017-10-16T10:56:24,42.805,6.029,CST-1368DR,11212,15291,15436,0.046,550
2017-10-16T10:59:28,42.805,6.029,CST-1368DR,11212,15263,15408,0.054,551
2017-10-16T11:02:33,42.805,6.029,CST-1368DR,11212,15301,15447,0.044,551
2017-10-16T11:05:38,42.805,6.029,CST-1368DR,11211,15301,15448,0.043,550
2017-10-16T11:08:43,42.805,6.029,CST-1368DR,11211,15298,15445,0.044,551
2017-10-16T11:11:48,42.805,6.029,CST-1368DR,11211,15298,15445,0.044,550
2017-10-16T11:14:53,42.805,6.029,CST-1368DR,11211,15298,15445,0.044,550
2017-10-16T11:17:58,42.805,6.029,CST-1368DR,11211,15279,15426,0.049,551
2017-10-16T11:21:03,42.805,6.029,CST-1368DR,11211,15302,15449,0.043,551
2017-10-16T11:24:08,42.805,6.029,CST-1368DR,11212,15309,15455,0.041,551
2017-10-16T11:27:12,42.805,6.029,CST-1368DR,11212,15310,15456,0.041,550
2017-10-16T11:30:17,42.805,6.029,CST-1368DR,11212,15311,15457,0.041,550
2017-10-16T11:33:22,42.805,6.029,CST-1368DR,11213,15314,15458,0.041,550
2017-10-16T11:36:27,42.805,6.029,CST-1368DR,11213,15310,15454,0.042,551
2017-10-16T11:39:32,42.805,6.029,CST-1368DR,11213,15287,15432,0.047,551
2017-10-16T11:42:37,42.805,6.029,CST-1368DR,11213,15301,15446,0.044,551
2017-10-16T11:45:42,42.805,6.029,CST-1368DR,11213,15307,15452,0.042,551
2017-10-16T11:48:47,42.805,6.029,CST-1368DR,11213,15313,15458,0.041,551
2017-10-16T11:51:52,42.805,6.029,CST-1368DR,11213,15316,15461,0.040,550
2017-10-16T11:54:57,42.805,6.029,CST-1368DR,11213,15313,15458,0.041,551
2017-10-16T11:58:01,42.805,6.029,CST-1368DR,11213,15306,15451,0.042,551
2017-10-16T12:01:06,42.805,6.029,CST-1368DR,11213,15306,15451,0.042,551
2017-10-16T12:04:11,42.805,6.029,CST-1368DR,11213,15311,15456,0.041,551
2017-10-16T12:07:16,42.805,6.029,CST-1368DR,11213,15316,15461,0.040,551
2017-10-16T12:10:21,42.805,6.029,CST-1368DR,11213,15316,15461,0.040,551
2017-10-16T12:13:26,42.805,6.029,CST-1368DR,11213,15317,15462,0.040,551
2017-10-16T12:16:31,42.805,6.029,CST-1368DR,11213,15318,15463,0.039,550
2017-10-16T12:19:36,42.805,6.029,CST-1368DR,11213,15316,15461,0.040,551
2017-10-16T12:22:41,42.805,6.029,CST-1368DR,11213,15316,15460,0.040,551
2017-10-16T12:25:45,42.805,6.029,CST-1368DR,11213,15315,15460,0.040,551
2017-10-16T12:28:50,42.805,6.029,CST-1368DR,11214,15316,15460,0.040,551
2017-10-16T12:31:55,42.805,6.029,CST-1368DR,11214,15318,15461,0.040,550
2017-10-16T12:35:00,42.805,6.029,CST-1368DR,11213,15314,15459,0.040,551
2017-10-16T12:38:05,42.805,6.029,CST-1368DR,11214,15313,15456,0.041,551
2017-10-16T12:41:10,42.805,6.029,CST-1368DR,11214,15314,15458,0.041,550
2017-10-16T12:44:15,42.805,6.029,CST-1368DR,11213,15305,15450,0.043,551
2017-10-16T12:47:20,42.805,6.029,CST-1368DR,11213,15313,15458,0.041,551
2017-10-16T12:50:25,42.805,6.029,CST-1368DR,11214,15317,15460,0.040,550
2017-10-16T12:53:29,42.805,6.029,CST-1368DR,11213,15316,15461,0.040,551
2017-10-16T12:56:34,42.805,6.029,CST-1368DR,11214,15311,15455,0.041,551
2017-10-16T12:59:39,42.805,6.029,CST-1368DR,11214,15318,15461,0.040,551
2017-10-16T13:02:44,42.805,6.029,CST-1368DR,11213,15317,15461,0.040,551
2017-10-16T13:05:49,42.805,6.029,CST-1368DR,11213,15312,15457,0.041,551
2017-10-16T13:08:54,42.805,6.029,CST-1368DR,11214,15314,15458,0.041,550
2017-10-16T13:11:59,42.805,6.029,CST-1368DR,11214,15316,15460,0.040,551
2017-10-16T13:15:04,42.805,6.029,CST-1368DR,11214,15315,15458,0.041,550
2017-10-16T13:18:09,42.805,6.029,CST-1368DR,11214,15318,15462,0.040,551
2017-10-16T13:21:13,42.805,6.029,CST-1368DR,11214,15311,15455,0.041,551
2017-10-16T13:24:18,42.805,6.029,CST-1368DR,11214,15313,15457,0.041,551
2017-10-16T13:27:23,42.805,6.029,CST-1368DR,11214,15302,15446,0.044,551
2017-10-16T13:30:28,42.805,6.029,CST-1368DR,11214,15317,15461,0.040,551
2017-10-16T13:33:33,42.805,6.029,CST-1368DR,11214,15316,15459,0.040,551
2017-10-16T13:36:38,42.805,6.029,CST-1368DR,11214,15319,15463,0.039,551
2017-10-16T13:39:43,42.805,6.029,CST-1368DR,11214,15318,15462,0.040,551
2017-10-16T13:42:48,42.805,6.029,CST-1368DR,11214,15317,15461,0.040,551
2017-10-16T13:45:53,42.805,6.029,CST-1368DR,11214,15318,15462,0.040,550
2017-10-16T13:48:58,42.805,6.029,CST-1368DR,11214,15318,15462,0.040,551
2017-10-16T13:52:02,42.805,6.029,CST-1368DR,11213,15316,15460,0.040,551
2017-10-16T13:55:07,42.805,6.029,CST-1368DR,11214,15317,15461,0.040,551
2017-10-16T13:58:12,42.805,6.029,CST-1368DR,11214,15313,15457,0.041,551
2017-10-16T14:01:17,42.805,6.029,CST-1368DR,11214,15316,15459,0.040,551
2017-10-16T14:04:22,42.805,6.029,CST-1368DR,11214,15316,15460,0.040,550
2017-10-16T14:07:27,42.805,6.029,CST-1368DR,11214,15315,15458,0.041,550
2017-10-16T14:10:32,42.805,6.029,CST-1368DR,11214,15313,15457,0.041,551
2017-10-16T14:13:37,42.805,6.029,CST-1368DR,11214,15314,15458,0.041,550
2017-10-16T14:16:42,42.805,6.029,CST-1368DR,11213,15315,15460,0.040,551
2017-10-16T14:19:46,42.805,6.029,CST-1368DR,11213,15317,15462,0.040,551
2017-10-16T14:22:51,42.805,6.029,CST-1368DR,11214,15315,15458,0.041,551
2017-10-16T14:25:56,42.805,6.029,CST-1368DR,11213,15309,15454,0.042,551
2017-10-16T14:29:01,42.805,6.029,CST-1368DR,11213,15314,15458,0.041,551
2017-10-16T14:32:06,42.805,6.029,CST-1368DR,11213,15314,15458,0.041,551
2017-10-16T14:35:11,42.805,6.029,CST-1368DR,11214,15310,15454,0.042,551
2017-10-16T14:38:16,42.805,6.029,CST-1368DR,11214,15313,15457,0.041,551
2017-10-16T14:41:21,42.805,6.029,CST-1368DR,11213,15312,15457,0.041,551
2017-10-16T14:44:26,42.805,6.029,CST-1368DR,11213,15315,15459,0.040,551
2017-10-16T14:47:30,42.805,6.029,CST-1368DR,11214,15315,15458,0.041,551
2017-10-16T14:50:35,42.805,6.029,CST-1368DR,11213,15316,15460,0.040,551
2017-10-16T14:53:40,42.805,6.029,CST-1368DR,11213,15315,15459,0.040,551
2017-10-16T14:56:45,42.805,6.029,CST-1368DR,11213,15315,15460,0.040,550
2017-10-16T14:59:50,42.805,6.029,CST-1368DR,11213,15313,15458,0.041,551
2017-10-16T15:02:55,42.805,6.029,CST-1368DR,11213,15315,15459,0.040,551
2017-10-16T15:06:00,42.805,6.029,CST-1368DR,11213,15317,15462,0.040,551
2017-10-16T15:09:05,42.805,6.029,CST-1368DR,11214,15314,15458,0.041,551
2017-10-16T15:12:10,42.805,6.029,CST-1368DR,11213,15312,15457,0.041,551
2017-10-16T15:15:14,42.805,6.029,CST-1368DR,11214,15315,15459,0.040,551
2017-10-16T15:18:19,42.805,6.029,CST-1368DR,11214,15314,15457,0.041,550
2017-10-16T15:21:24,42.805,6.029,CST-1368DR,11213,15317,15462,0.040,551
2017-10-16T15:24:29,42.805,6.029,CST-1368DR,11213,15317,15462,0.040,551
2017-10-16T15:27:34,42.805,6.029,CST-1368DR,11213,15318,15463,0.039,551
2017-10-16T15:30:39,42.805,6.029,CST-1368DR,11213,15316,15461,0.040,550
2017-10-16T15:33:44,42.805,6.029,CST-1368DR,11213,15314,15459,0.040,551
2017-10-16T15:36:49,42.805,6.029,CST-1368DR,11213,15316,15461,0.040,551
2017-10-16T15:39:54,42.805,6.029,CST-1368DR,11213,15314,15458,0.041,551
2017-10-16T15:42:59,42.805,6.029,CST-1368DR,11213,15315,15460,0.040,551
2017-10-16T15:46:03,42.805,6.029,CST-1368DR,11213,15308,15452,0.042,551
2017-10-16T15:49:08,42.805,6.029,CST-1368DR,11213,15313,15458,0.041,551
2017-10-16T15:52:13,42.805,6.029,CST-1368DR,11213,15311,15456,0.041,551
2017-10-16T15:55:18,42.805,6.029,CST-1368DR,11213,15311,15456,0.041,551
2017-10-16T15:58:23,42.805,6.029,CST-1368DR,11213,15301,15446,0.044,551
2017-10-16T16:01:28,42.805,6.029,CST-1368DR,11213,15314,15459,0.040,551
2017-10-16T16:04:33,42.805,6.029,CST-1368DR,11213,15315,15459,0.040,551
2017-10-16T16:07:38,42.805,6.029,CST-1368DR,11213,15306,15451,0.042,551
2017-10-16T16:10:43,42.805,6.029,CST-1368DR,11214,15317,15461,0.040,551
2017-10-16T16:13:47,42.805,6.029,CST-1368DR,11213,15317,15462,0.040,551
2017-10-16T16:16:52,42.805,6.029,CST-1368DR,11213,15313,15458,0.041,550
2017-10-16T16:19:57,42.805,6.029,CST-1368DR,11214,15316,15460,0.040,551
2017-10-16T16:23:02,42.805,6.029,CST-1368DR,11213,15318,15463,0.039,550
2017-10-16T16:26:07,42.805,6.029,CST-1368DR,11213,15314,15459,0.040,550
2017-10-16T16:29:12,42.805,6.029,CST-1368DR,11213,15300,15444,0.044,550
2017-10-16T16:32:17,42.805,6.029,CST-1368DR,11213,15313,15458,0.041,550
2017-10-16T16:35:22,42.805,6.029,CST-1368DR,11213,15314,15459,0.040,551
2017-10-16T16:38:27,42.805,6.029,CST-1368DR,11213,15302,15447,0.044,550